Zurück zum Katalog

ONEWEB-0062

AktivKommunikationPO
NORAD 45163·PAYLOAD·🇬🇧 United Kingdom

Gestartet Feb 6, 2020 von Baikonur Cosmodrome

Loading…

Nächste Überflüge (nächste 24 Stunden)

TLE

AktuellSource: CelesTrak SupGP

Epoche: Sep 14, 2026, 10:33 UTC

1 45163C 20008AJ  26257.43977266 -.00002736  00000+0 -78475-2 0  2574
2 45163  87.8904  18.4987 0001580  92.5272  19.8968 13.10371755    10

Verfolge ONEWEB-0062 in Echtzeit mit AllMySat

Download on the App Store